KQA461 HKJK-HKMO

Flight info

Callsign KQA461
Flight time 0h 40m
Altitude 33000
Route ATUDU1D UVOVA UQ135 NEREV NEREV3A
Aircraft B788/H-SDE1E2E3FGHIJ2J3J4J5M1RWXY/LB1D1

Departure

Time 2026-04-21 10:39
Airport Jomo Kenyatta International Airport (HKJK)

Arrival

Time 2026-04-21 11:20
Airport Moi International Airport (HKMO)
Time Latitude Longitude Altitude Speed Heading
2026-04-21 10:13 -1.33357 36.92396 5342 ft 0 kts 18°
2026-04-21 10:27 -1.33366 36.92393 5342 ft 2 kts 17°
2026-04-21 10:27 -1.33382 36.92388 5342 ft 2 kts 14°
2026-04-21 10:27 -1.33398 36.92385 5342 ft 2 kts
2026-04-21 10:27 -1.33413 36.92384 5342 ft 2 kts 358°
2026-04-21 10:28 -1.33428 36.92386 5342 ft 2 kts 337°
2026-04-21 10:28 -1.33437 36.92392 5342 ft 2 kts 303°
2026-04-21 10:28 -1.33440 36.92400 5342 ft 2 kts 267°
2026-04-21 10:28 -1.33439 36.92416 5342 ft 2 kts 267°
2026-04-21 10:29 -1.33439 36.92426 5342 ft 0 kts 267°
2026-04-21 10:31 -1.33439 36.92425 5342 ft 0 kts 267°
2026-04-21 10:31 -1.33440 36.92400 5342 ft 8 kts 265°
2026-04-21 10:32 -1.33465 36.92330 5342 ft 14 kts 237°
2026-04-21 10:32 -1.33524 36.92248 5342 ft 12 kts 242°
2026-04-21 10:32 -1.33501 36.92187 5342 ft 12 kts 321°
2026-04-21 10:32 -1.33409 36.92120 5342 ft 19 kts 324°
2026-04-21 10:33 -1.33294 36.92036 5342 ft 23 kts 324°
2026-04-21 10:33 -1.33155 36.91936 5342 ft 23 kts 324°
2026-04-21 10:33 -1.33045 36.91856 5342 ft 19 kts 324°
2026-04-21 10:33 -1.32940 36.91780 5342 ft 18 kts 324°
2026-04-21 10:34 -1.32867 36.91727 5342 ft 8 kts 324°
2026-04-21 10:34 -1.32847 36.91713 5342 ft 0 kts 324°
2026-04-21 10:35 -1.32847 36.91712 5342 ft 0 kts 324°
2026-04-21 10:36 -1.32846 36.91712 5342 ft 0 kts 324°
2026-04-21 10:37 -1.32838 36.91706 5342 ft 5 kts 324°
2026-04-21 10:37 -1.32768 36.91666 5342 ft 8 kts 351°
2026-04-21 10:38 -1.32711 36.91699 5342 ft 1 kts 55°
2026-04-21 10:38 -1.32693 36.91724 5342 ft 12 kts 54°
2026-04-21 10:38 -1.32559 36.91906 5342 ft 54 kts 52°
2026-04-21 10:38 -1.32261 36.92320 5342 ft 91 kts 51°
2026-04-21 10:39 -1.31777 36.92988 5342 ft 159 kts 51°
2026-04-21 10:39 -1.31227 36.93727 5622 ft 192 kts 50°
2026-04-21 10:39 -1.30491 36.94878 6543 ft 206 kts 59°
2026-04-21 10:39 -1.30216 36.96265 7550 ft 206 kts 79°
2026-04-21 10:40 -1.30066 36.97735 8260 ft 215 kts 83°
2026-04-21 10:40 -1.29922 36.99212 9110 ft 213 kts 84°
2026-04-21 10:40 -1.29759 37.00727 9759 ft 226 kts 83°
2026-04-21 10:40 -1.29565 37.02342 10276 ft 241 kts 82°
2026-04-21 10:41 -1.29347 37.04065 10679 ft 259 kts 82°
2026-04-21 10:41 -1.29100 37.05955 10936 ft 283 kts 82°
2026-04-21 10:41 -1.28831 37.07996 11017 ft 308 kts 82°
2026-04-21 10:41 -1.28539 37.10191 11028 ft 329 kts 82°
2026-04-21 10:42 -1.28228 37.12531 11039 ft 350 kts 82°
2026-04-21 10:42 -1.28248 37.15035 11403 ft 371 kts 99°
2026-04-21 10:42 -1.29188 37.17442 12273 ft 374 kts 121°
2026-04-21 10:42 -1.30883 37.19375 13268 ft 370 kts 140°
2026-04-21 10:43 -1.32899 37.20981 14279 ft 371 kts 145°
2026-04-21 10:43 -1.34977 37.22639 15101 ft 379 kts 143°
2026-04-21 10:43 -1.36955 37.24341 15864 ft 385 kts 141°
2026-04-21 10:43 -1.38947 37.26171 16640 ft 392 kts 139°
2026-04-21 10:44 -1.40927 37.28067 17407 ft 397 kts 138°
2026-04-21 10:44 -1.42913 37.30009 18170 ft 401 kts 138°
2026-04-21 10:44 -1.44908 37.31981 18918 ft 405 kts 137°
2026-04-21 10:44 -1.46920 37.33976 19640 ft 409 kts 137°
2026-04-21 10:45 -1.48954 37.35994 20329 ft 414 kts 137°
2026-04-21 10:45 -1.51009 37.38034 20992 ft 418 kts 137°
2026-04-21 10:45 -1.53085 37.40095 21637 ft 423 kts 137°
2026-04-21 10:45 -1.55181 37.42174 22275 ft 427 kts 137°
2026-04-21 10:46 -1.57300 37.44277 22903 ft 430 kts 137°
2026-04-21 10:46 -1.59437 37.46397 23516 ft 434 kts 137°
2026-04-21 10:46 -1.61561 37.48504 24101 ft 438 kts 137°
2026-04-21 10:46 -1.63733 37.50659 24673 ft 441 kts 137°
2026-04-21 10:47 -1.65921 37.52831 25225 ft 445 kts 137°
2026-04-21 10:47 -1.68127 37.55019 25763 ft 449 kts 137°
2026-04-21 10:47 -1.70350 37.57225 26289 ft 452 kts 137°
2026-04-21 10:47 -1.72597 37.59455 26805 ft 456 kts 137°
2026-04-21 10:48 -1.74851 37.61691 27304 ft 459 kts 137°
2026-04-21 10:48 -1.77124 37.63948 27786 ft 462 kts 137°
2026-04-21 10:48 -1.79411 37.66224 28246 ft 466 kts 137°
2026-04-21 10:48 -1.81714 37.68520 28689 ft 469 kts 137°
2026-04-21 10:49 -1.84031 37.70831 29113 ft 472 kts 137°
2026-04-21 10:49 -1.86365 37.73159 29532 ft 475 kts 137°
2026-04-21 10:49 -1.88709 37.75498 29949 ft 478 kts 137°
2026-04-21 10:49 -1.91068 37.77850 30360 ft 480 kts 137°
2026-04-21 10:50 -1.93440 37.80216 30760 ft 483 kts 137°
2026-04-21 10:50 -1.95830 37.82600 31144 ft 486 kts 137°
2026-04-21 10:50 -1.98236 37.84999 31521 ft 489 kts 137°
2026-04-21 10:50 -2.00624 37.87381 31889 ft 492 kts 137°
2026-04-21 10:51 -2.03087 37.89837 32265 ft 495 kts 137°
2026-04-21 10:51 -2.05539 37.92283 32635 ft 497 kts 137°
2026-04-21 10:51 -2.07980 37.94719 32873 ft 497 kts 137°
2026-04-21 10:51 -2.10425 37.97159 32975 ft 497 kts 137°
2026-04-21 10:52 -2.12883 37.99611 32987 ft 499 kts 137°
2026-04-21 10:52 -2.17793 38.04510 32998 ft 499 kts 137°
2026-04-21 10:53 -2.22676 38.09383 33000 ft 498 kts 137°
2026-04-21 10:53 -2.27588 38.14285 32995 ft 498 kts 137°
2026-04-21 10:54 -2.32492 38.19179 32998 ft 498 kts 137°
2026-04-21 10:54 -2.37400 38.24077 33001 ft 499 kts 137°
2026-04-21 10:55 -2.42307 38.28976 32991 ft 498 kts 137°
2026-04-21 10:55 -2.47218 38.33879 33002 ft 498 kts 137°
2026-04-21 10:56 -2.52135 38.38788 32881 ft 501 kts 137°
2026-04-21 10:56 -2.54601 38.41250 32329 ft 497 kts 137°
2026-04-21 10:56 -2.57022 38.43670 31724 ft 488 kts 137°
2026-04-21 10:56 -2.59402 38.46048 31116 ft 479 kts 137°
2026-04-21 10:57 -2.61734 38.48380 30517 ft 471 kts 137°
2026-04-21 10:57 -2.64037 38.50680 29925 ft 464 kts 137°
2026-04-21 10:57 -2.66313 38.52953 29340 ft 460 kts 137°
2026-04-21 10:57 -2.68583 38.55219 28755 ft 459 kts 137°
2026-04-21 10:58 -2.70833 38.57465 28166 ft 458 kts 137°
2026-04-21 10:58 -2.73078 38.59707 27571 ft 455 kts 137°
2026-04-21 10:58 -2.75309 38.61937 26984 ft 451 kts 137°
2026-04-21 10:58 -2.77515 38.64141 26416 ft 446 kts 137°
2026-04-21 10:59 -2.79709 38.66334 25856 ft 441 kts 137°
2026-04-21 10:59 -2.81862 38.68485 25303 ft 437 kts 137°
2026-04-21 10:59 -2.84006 38.70627 24744 ft 434 kts 137°
2026-04-21 10:59 -2.86132 38.72752 24182 ft 431 kts 137°
2026-04-21 11:00 -2.88248 38.74866 23624 ft 428 kts 137°
2026-04-21 11:00 -2.90343 38.76960 23082 ft 424 kts 137°
2026-04-21 11:00 -2.92421 38.79038 22552 ft 420 kts 137°
2026-04-21 11:00 -2.94483 38.81099 22022 ft 417 kts 137°
2026-04-21 11:01 -2.96531 38.83145 21487 ft 414 kts 137°
2026-04-21 11:01 -2.98567 38.85180 20948 ft 412 kts 137°
2026-04-21 11:01 -3.00583 38.87195 20418 ft 409 kts 137°
2026-04-21 11:02 -3.04550 38.91162 19399 ft 402 kts 137°
2026-04-21 11:02 -3.06523 38.93134 18892 ft 399 kts 137°
2026-04-21 11:02 -3.08479 38.95090 18380 ft 396 kts 137°
2026-04-21 11:02 -3.10419 38.97030 17865 ft 393 kts 137°
2026-04-21 11:03 -3.12352 38.98963 17357 ft 390 kts 137°
2026-04-21 11:03 -3.14266 39.00877 16864 ft 387 kts 137°
2026-04-21 11:03 -3.16163 39.02774 16381 ft 385 kts 137°
2026-04-21 11:03 -3.18055 39.04666 15895 ft 382 kts 137°
2026-04-21 11:04 -3.19939 39.06551 15400 ft 381 kts 137°
2026-04-21 11:04 -3.21801 39.08413 14904 ft 378 kts 137°
2026-04-21 11:04 -3.23653 39.10266 14416 ft 374 kts 137°
2026-04-21 11:04 -3.25486 39.12081 13947 ft 368 kts 138°
2026-04-21 11:05 -3.27314 39.13836 13527 ft 360 kts 139°
2026-04-21 11:05 -3.29079 39.15520 13071 ft 347 kts 139°
2026-04-21 11:05 -3.30752 39.17117 12790 ft 325 kts 139°
2026-04-21 11:05 -3.32354 39.18649 12577 ft 304 kts 139°
2026-04-21 11:06 -3.33844 39.20075 12356 ft 289 kts 140°
2026-04-21 11:06 -3.35292 39.21457 12190 ft 290 kts 140°
2026-04-21 11:06 -3.36785 39.22880 11937 ft 301 kts 140°
2026-04-21 11:06 -3.38314 39.24341 11618 ft 304 kts 139°
2026-04-21 11:07 -3.39836 39.25799 11294 ft 303 kts 139°
2026-04-21 11:07 -3.41350 39.27250 11010 ft 299 kts 139°
2026-04-21 11:07 -3.42842 39.28682 10751 ft 295 kts 139°
2026-04-21 11:07 -3.44319 39.30098 10488 ft 292 kts 139°
2026-04-21 11:08 -3.45775 39.31493 10225 ft 289 kts 139°
2026-04-21 11:08 -3.47222 39.32881 9956 ft 286 kts 139°
2026-04-21 11:08 -3.48656 39.34254 9682 ft 285 kts 139°
2026-04-21 11:08 -3.50085 39.35624 9413 ft 284 kts 139°
2026-04-21 11:09 -3.51516 39.36995 9145 ft 283 kts 139°
2026-04-21 11:09 -3.52940 39.38360 8879 ft 283 kts 139°
2026-04-21 11:09 -3.54358 39.39719 8614 ft 282 kts 139°
2026-04-21 11:09 -3.55774 39.41077 8348 ft 281 kts 139°
2026-04-21 11:10 -3.57182 39.42427 8083 ft 280 kts 139°
2026-04-21 11:10 -3.58584 39.43771 7820 ft 278 kts 139°
2026-04-21 11:10 -3.59513 39.44657 7648 ft 277 kts 137°
2026-04-21 11:10 -3.60901 39.45975 7373 ft 273 kts 135°
2026-04-21 11:11 -3.62709 39.47714 6921 ft 270 kts 135°
2026-04-21 11:11 -3.63621 39.48592 6721 ft 268 kts 135°
2026-04-21 11:11 -3.65384 39.50287 6396 ft 261 kts 135°
2026-04-21 11:11 -3.66261 39.51130 6280 ft 257 kts 135°
2026-04-21 11:12 -3.67538 39.52356 6085 ft 251 kts 136°
2026-04-21 11:12 -3.68787 39.53555 5883 ft 248 kts 136°
2026-04-21 11:12 -3.70031 39.54749 5670 ft 248 kts 136°
2026-04-21 11:12 -3.71686 39.56337 5372 ft 249 kts 136°
2026-04-21 11:13 -3.72530 39.57147 5214 ft 249 kts 136°
2026-04-21 11:13 -3.73746 39.58315 4979 ft 248 kts 136°
2026-04-21 11:13 -3.75021 39.59537 4734 ft 246 kts 136°
2026-04-21 11:13 -3.76252 39.60719 4503 ft 244 kts 136°
2026-04-21 11:14 -3.77531 39.61826 4207 ft 243 kts 145°
2026-04-21 11:14 -3.79073 39.62412 3992 ft 230 kts 161°
2026-04-21 11:14 -3.80581 39.62822 3808 ft 220 kts 165°
2026-04-21 11:14 -3.82042 39.63188 3614 ft 213 kts 165°
2026-04-21 11:15 -3.83462 39.63533 3429 ft 207 kts 166°
2026-04-21 11:15 -3.84831 39.63860 3275 ft 195 kts 166°
2026-04-21 11:15 -3.86099 39.64160 3079 ft 182 kts 166°
2026-04-21 11:15 -3.87304 39.64445 2860 ft 175 kts 166°
2026-04-21 11:16 -3.88475 39.64721 2691 ft 172 kts 167°
2026-04-21 11:16 -3.89635 39.64993 2513 ft 171 kts 167°
2026-04-21 11:16 -3.90786 39.65263 2298 ft 169 kts 167°
2026-04-21 11:16 -3.91909 39.65503 2093 ft 159 kts 170°
2026-04-21 11:17 -3.92957 39.65295 1908 ft 154 kts 197°
2026-04-21 11:17 -3.93890 39.64807 2037 ft 150 kts 205°
2026-04-21 11:17 -3.94802 39.64297 1769 ft 150 kts 207°
2026-04-21 11:17 -3.95707 39.63775 1512 ft 147 kts 208°
2026-04-21 11:18 -3.96595 39.63270 1302 ft 146 kts 208°
2026-04-21 11:18 -3.97497 39.62769 1091 ft 145 kts 208°
2026-04-21 11:18 -3.98370 39.62288 902 ft 145 kts 208°
2026-04-21 11:18 -3.99235 39.61807 713 ft 144 kts 208°
2026-04-21 11:19 -4.00129 39.61305 517 ft 144 kts 208°
2026-04-21 11:19 -4.01016 39.60807 323 ft 144 kts 208°
2026-04-21 11:19 -4.01888 39.60318 210 ft 134 kts 208°
2026-04-21 11:19 -4.02568 39.59937 210 ft 91 kts 210°
2026-04-21 11:20 -4.03021 39.59686 210 ft 58 kts 210°
2026-04-21 11:20 -4.03300 39.59531 210 ft 35 kts 209°
2026-04-21 11:20 -4.03476 39.59431 210 ft 29 kts 209°
2026-04-21 11:20 -4.03661 39.59328 210 ft 31 kts 210°
2026-04-21 11:21 -4.03836 39.59229 210 ft 21 kts 209°
2026-04-21 11:21 -4.03928 39.59192 210 ft 5 kts 174°
2026-04-21 11:21 -4.03954 39.59205 210 ft 0 kts 137°
2026-04-21 11:22 -4.03955 39.59206 210 ft 0 kts 136°
2026-04-21 11:22 -4.03961 39.59212 210 ft 5 kts 133°
2026-04-21 11:23 -4.03963 39.59214 210 ft 0 kts 131°
2026-04-21 11:24 -4.03963 39.59215 210 ft 0 kts 131°
2026-04-21 11:25 -4.03964 39.59215 210 ft 0 kts 131°
2026-04-21 11:26 -4.03966 39.59218 210 ft 1 kts 128°
2026-04-21 11:26 -4.03977 39.59238 210 ft 4 kts 111°
2026-04-21 11:26 -4.03978 39.59264 210 ft 6 kts 81°
2026-04-21 11:27 -4.03968 39.59296 210 ft 3 kts 67°
2026-04-21 11:27 -4.03947 39.59333 210 ft 5 kts 52°
2026-04-21 11:27 -4.03931 39.59353 210 ft 3 kts 50°
2026-04-21 11:27 -4.03893 39.59389 210 ft 11 kts 37°
2026-04-21 11:28 -4.03845 39.59418 210 ft 11 kts 28°
2026-04-21 11:28 -4.03768 39.59460 210 ft 16 kts 29°
2026-04-21 11:28 -4.03666 39.59518 210 ft 16 kts 29°
2026-04-21 11:28 -4.03541 39.59588 210 ft 22 kts 29°
2026-04-21 11:29 -4.03449 39.59638 210 ft 13 kts 29°
2026-04-21 11:29 -4.03369 39.59683 210 ft 12 kts 31°
2026-04-21 11:29 -4.03282 39.59733 210 ft 19 kts 30°
2026-04-21 11:29 -4.03174 39.59794 210 ft 13 kts 29°
2026-04-21 11:30 -4.03065 39.59856 210 ft 19 kts 30°
2026-04-21 11:30 -4.03000 39.59893 210 ft 10 kts 29°
2026-04-21 11:30 -4.02964 39.59913 210 ft 7 kts 30°
2026-04-21 11:30 -4.02918 39.59939 210 ft 6 kts 30°
2026-04-21 11:31 -4.02908 39.59972 210 ft 7 kts 105°
2026-04-21 11:31 -4.02929 39.60017 210 ft 8 kts 117°
2026-04-21 11:31 -4.02949 39.60054 210 ft 9 kts 117°
2026-04-21 11:31 -4.02973 39.60102 210 ft 7 kts 118°
2026-04-21 11:32 -4.02988 39.60140 210 ft 8 kts 95°
2026-04-21 11:32 -4.03001 39.60182 210 ft 8 kts 117°
2026-04-21 11:32 -4.03019 39.60214 210 ft 7 kts 118°
2026-04-21 11:32 -4.03025 39.60227 210 ft 0 kts 118°
2026-04-21 11:33 -4.03026 39.60227 210 ft 0 kts 118°